N33M KTPA-KSAV

Flight info

Callsign N33M
Flight time 0h 42m
Altitude 35000
Route BAYPO2 CAMJO SAV
Aircraft C750/M-VGDW/C

Departure

Time 2026-05-03 21:21
Airport Tampa International Airport (KTPA)

Arrival

Time 2026-05-03 22:03
Airport Savannah Hilton Head International Airport (KSAV)
Time Latitude Longitude Altitude Speed Heading
2026-05-03 21:02 27.96782 -82.52066 24 ft 0 kts 90°
2026-05-03 21:13 27.96782 -82.52065 24 ft 1 kts 90°
2026-05-03 21:14 27.96795 -82.52016 25 ft 8 kts 51°
2026-05-03 21:14 27.96835 -82.51979 25 ft 6 kts 19°
2026-05-03 21:14 27.96849 -82.51976 25 ft 0 kts
2026-05-03 21:15 27.96854 -82.51976 25 ft 5 kts
2026-05-03 21:15 27.96915 -82.52001 25 ft 10 kts 294°
2026-05-03 21:15 27.96926 -82.52093 25 ft 13 kts 271°
2026-05-03 21:16 27.96929 -82.52226 23 ft 20 kts 271°
2026-05-03 21:16 27.96934 -82.52393 22 ft 21 kts 271°
2026-05-03 21:16 27.96938 -82.52557 22 ft 20 kts 271°
2026-05-03 21:16 27.96943 -82.52706 20 ft 14 kts 267°
2026-05-03 21:17 27.96872 -82.52760 19 ft 13 kts 184°
2026-05-03 21:17 27.96809 -82.52763 19 ft 13 kts 181°
2026-05-03 21:17 27.96680 -82.52766 17 ft 14 kts 181°
2026-05-03 21:17 27.96566 -82.52769 16 ft 17 kts 181°
2026-05-03 21:18 27.96465 -82.52778 16 ft 10 kts 207°
2026-05-03 21:18 27.96452 -82.52789 16 ft 0 kts 235°
2026-05-03 21:19 27.96439 -82.52846 15 ft 14 kts 276°
2026-05-03 21:20 27.96508 -82.52900 15 ft 13 kts
2026-05-03 21:20 27.96707 -82.52891 16 ft 64 kts
2026-05-03 21:20 27.97456 -82.52871 22 ft 146 kts
2026-05-03 21:20 27.98618 -82.52821 346 ft 181 kts
2026-05-03 21:21 27.99938 -82.52767 1043 ft 206 kts
2026-05-03 21:21 28.01520 -82.52786 1581 ft 245 kts
2026-05-03 21:21 28.03320 -82.52837 2128 ft 267 kts
2026-05-03 21:21 28.05204 -82.52904 2613 ft 275 kts
2026-05-03 21:22 28.07116 -82.53200 3081 ft 283 kts 346°
2026-05-03 21:22 28.08968 -82.53827 3895 ft 270 kts 346°
2026-05-03 21:22 28.10777 -82.54444 4703 ft 280 kts 345°
2026-05-03 21:22 28.12606 -82.55072 5992 ft 279 kts 344°
2026-05-03 21:23 28.14440 -82.55702 7253 ft 279 kts 341°
2026-05-03 21:23 28.16275 -82.56334 8376 ft 281 kts 339°
2026-05-03 21:23 28.18154 -82.56990 9429 ft 285 kts 337°
2026-05-03 21:23 28.20071 -82.57590 10353 ft 297 kts 346°
2026-05-03 21:24 28.22186 -82.57661 11289 ft 308 kts 353°
2026-05-03 21:24 28.24345 -82.57735 11915 ft 325 kts 352°
2026-05-03 21:24 28.26761 -82.57804 11989 ft 360 kts 352°
2026-05-03 21:24 28.29356 -82.57879 11999 ft 382 kts 353°
2026-05-03 21:25 28.32007 -82.57951 11946 ft 372 kts 353°
2026-05-03 21:25 28.34551 -82.58019 11945 ft 361 kts 353°
2026-05-03 21:25 28.37026 -82.58092 11940 ft 353 kts 353°
2026-05-03 21:25 28.39483 -82.58151 11972 ft 347 kts 353°
2026-05-03 21:26 28.41898 -82.58215 11961 ft 342 kts 353°
2026-05-03 21:26 28.44251 -82.58273 11941 ft 337 kts 353°
2026-05-03 21:26 28.46592 -82.58330 11979 ft 333 kts 353°
2026-05-03 21:26 28.48891 -82.58385 11968 ft 330 kts 352°
2026-05-03 21:27 28.51193 -82.58445 11961 ft 327 kts 352°
2026-05-03 21:27 28.53464 -82.58508 12057 ft 335 kts 352°
2026-05-03 21:27 28.55827 -82.58563 12952 ft 340 kts 352°
2026-05-03 21:27 28.58163 -82.58616 13974 ft 340 kts 352°
2026-05-03 21:28 28.60546 -82.58679 14833 ft 344 kts 352°
2026-05-03 21:28 28.62927 -82.58745 15643 ft 348 kts 351°
2026-05-03 21:28 28.65377 -82.58800 16435 ft 353 kts 351°
2026-05-03 21:28 28.67839 -82.58939 17113 ft 356 kts 346°
2026-05-03 21:29 28.70286 -82.59299 17884 ft 359 kts 345°
2026-05-03 21:29 28.72793 -82.59647 18606 ft 363 kts 345°
2026-05-03 21:29 28.75301 -82.59999 19306 ft 368 kts 345°
2026-05-03 21:29 28.77864 -82.60353 20058 ft 371 kts 345°
2026-05-03 21:30 28.80413 -82.60708 20732 ft 375 kts 345°
2026-05-03 21:30 28.83027 -82.61070 21476 ft 377 kts 345°
2026-05-03 21:30 28.85625 -82.61439 22099 ft 381 kts 344°
2026-05-03 21:30 28.88251 -82.61805 22771 ft 383 kts 344°
2026-05-03 21:31 28.90930 -82.62177 23454 ft 386 kts 344°
2026-05-03 21:31 28.93606 -82.62550 23933 ft 393 kts 344°
2026-05-03 21:31 28.96345 -82.62934 24583 ft 396 kts 343°
2026-05-03 21:31 28.99077 -82.63315 25094 ft 400 kts 343°
2026-05-03 21:32 29.01875 -82.63714 25647 ft 404 kts 344°
2026-05-03 21:32 29.04654 -82.64098 26203 ft 407 kts 343°
2026-05-03 21:32 29.07458 -82.64488 26776 ft 409 kts 343°
2026-05-03 21:32 29.10324 -82.64893 27289 ft 412 kts 343°
2026-05-03 21:33 29.13178 -82.65292 27707 ft 418 kts 343°
2026-05-03 21:33 29.16113 -82.65705 28141 ft 422 kts 343°
2026-05-03 21:33 29.19026 -82.66116 28613 ft 425 kts 343°
2026-05-03 21:33 29.21983 -82.66528 29163 ft 425 kts 342°
2026-05-03 21:34 29.24908 -82.66941 29595 ft 429 kts 342°
2026-05-03 21:34 29.27873 -82.67361 29892 ft 435 kts 342°
2026-05-03 21:34 29.30936 -82.67791 30032 ft 445 kts 342°
2026-05-03 21:34 29.34030 -82.68237 30044 ft 458 kts 342°
2026-05-03 21:35 29.37265 -82.68693 30042 ft 470 kts 343°
2026-05-03 21:35 29.40544 -82.69155 30047 ft 483 kts 343°
2026-05-03 21:35 29.43951 -82.69354 30037 ft 505 kts 352°
2026-05-03 21:35 29.47530 -82.69302 30039 ft 514 kts 351°
2026-05-03 21:36 29.51139 -82.69276 30040 ft 525 kts 352°
2026-05-03 21:36 29.54839 -82.69247 30040 ft 533 kts 352°
2026-05-03 21:36 29.62363 -82.69196 30046 ft 551 kts 352°
2026-05-03 21:37 29.70137 -82.69145 30042 ft 563 kts 352°
2026-05-03 21:37 29.78020 -82.69099 30036 ft 567 kts 352°
2026-05-03 21:38 29.85904 -82.69047 30032 ft 562 kts 352°
2026-05-03 21:38 29.93627 -82.68993 30042 ft 551 kts 352°
2026-05-03 21:39 30.01236 -82.68948 30042 ft 543 kts 352°
2026-05-03 21:39 30.05017 -82.68925 30212 ft 535 kts 352°
2026-05-03 21:39 30.08680 -82.68843 30609 ft 530 kts 356°
2026-05-03 21:40 30.12328 -82.67806 30951 ft 543 kts 17°
2026-05-03 21:40 30.15559 -82.65556 31018 ft 555 kts 35°
2026-05-03 21:40 30.18173 -82.62219 31062 ft 562 kts 54°
2026-05-03 21:40 30.20359 -82.58535 31021 ft 559 kts 46°
2026-05-03 21:41 30.23241 -82.55670 31129 ft 545 kts 30°
2026-05-03 21:41 30.26325 -82.53072 31060 ft 546 kts 31°
2026-05-03 21:41 30.32699 -82.48427 31049 ft 545 kts 25°
2026-05-03 21:42 30.39267 -82.43857 31059 ft 557 kts 25°
2026-05-03 21:42 30.45981 -82.39172 31050 ft 569 kts 25°
2026-05-03 21:43 30.52804 -82.34402 31058 ft 579 kts 26°
2026-05-03 21:43 30.59785 -82.29517 31049 ft 586 kts 26°
2026-05-03 21:44 30.66791 -82.24600 31043 ft 591 kts 26°
2026-05-03 21:44 30.73815 -82.19656 31045 ft 592 kts 26°
2026-05-03 21:45 30.80852 -82.14713 31049 ft 592 kts 26°
2026-05-03 21:45 30.87908 -82.09745 31049 ft 593 kts 26°
2026-05-03 21:46 30.94944 -82.04762 31053 ft 591 kts 26°
2026-05-03 21:46 30.98391 -82.02326 30395 ft 581 kts 26°
2026-05-03 21:46 31.01794 -81.99912 29636 ft 574 kts 26°
2026-05-03 21:47 31.05209 -81.97501 28872 ft 563 kts 26°
2026-05-03 21:47 31.08487 -81.95169 28099 ft 550 kts 26°
2026-05-03 21:47 31.11741 -81.92861 27201 ft 537 kts 26°
2026-05-03 21:47 31.14866 -81.90644 26319 ft 525 kts 26°
2026-05-03 21:48 31.17952 -81.88452 25410 ft 508 kts 26°
2026-05-03 21:48 31.20890 -81.86359 24518 ft 492 kts 26°
2026-05-03 21:48 31.23785 -81.84299 23607 ft 479 kts 27°
2026-05-03 21:48 31.26568 -81.82324 22728 ft 466 kts 27°
2026-05-03 21:49 31.29310 -81.80363 21861 ft 455 kts 27°
2026-05-03 21:49 31.31947 -81.78481 21002 ft 444 kts 27°
2026-05-03 21:49 31.34564 -81.76616 20127 ft 435 kts 27°
2026-05-03 21:49 31.37118 -81.74789 19274 ft 425 kts 27°
2026-05-03 21:50 31.39591 -81.73023 18416 ft 416 kts 27°
2026-05-03 21:50 31.42039 -81.71275 17563 ft 408 kts 27°
2026-05-03 21:50 31.44408 -81.69579 16704 ft 400 kts 27°
2026-05-03 21:50 31.46775 -81.67886 15835 ft 393 kts 27°
2026-05-03 21:51 31.49060 -81.66245 14982 ft 386 kts 27°
2026-05-03 21:51 31.51331 -81.64619 14410 ft 374 kts 27°
2026-05-03 21:51 31.53502 -81.63055 13918 ft 366 kts 27°
2026-05-03 21:51 31.55664 -81.61508 13424 ft 359 kts 27°
2026-05-03 21:52 31.57788 -81.59982 12946 ft 354 kts 27°
2026-05-03 21:52 31.59851 -81.58498 12465 ft 349 kts 27°
2026-05-03 21:52 31.61913 -81.57004 11984 ft 345 kts 28°
2026-05-03 21:52 31.63926 -81.55560 11500 ft 340 kts 27°
2026-05-03 21:53 31.65939 -81.54114 11013 ft 336 kts 27°
2026-05-03 21:53 31.67918 -81.52695 10432 ft 335 kts 27°
2026-05-03 21:53 31.69917 -81.51256 9818 ft 334 kts 28°
2026-05-03 21:53 31.71877 -81.49844 9232 ft 332 kts 28°
2026-05-03 21:54 31.73819 -81.48447 8649 ft 330 kts 28°
2026-05-03 21:54 31.75779 -81.47034 8026 ft 328 kts 28°
2026-05-03 21:54 31.77698 -81.45646 7422 ft 325 kts 29°
2026-05-03 21:54 31.79612 -81.44260 6822 ft 322 kts 29°
2026-05-03 21:55 31.81527 -81.42881 6197 ft 319 kts 29°
2026-05-03 21:55 31.83420 -81.41516 5571 ft 317 kts 30°
2026-05-03 21:55 31.85264 -81.40181 4946 ft 308 kts 30°
2026-05-03 21:55 31.87051 -81.38885 4336 ft 300 kts 31°
2026-05-03 21:56 31.88808 -81.37617 3658 ft 289 kts 31°
2026-05-03 21:56 31.90473 -81.36410 3039 ft 278 kts 31°
2026-05-03 21:56 31.92099 -81.35241 2408 ft 269 kts 32°
2026-05-03 21:56 31.93705 -81.34226 1992 ft 255 kts 17°
2026-05-03 21:57 31.95362 -81.34235 1980 ft 229 kts 351°
2026-05-03 21:57 31.96910 -81.34573 2025 ft 225 kts 352°
2026-05-03 21:57 31.98524 -81.34923 2016 ft 241 kts 351°
2026-05-03 21:57 32.00165 -81.35284 1995 ft 241 kts 351°
2026-05-03 21:58 32.01830 -81.35648 1976 ft 241 kts 351°
2026-05-03 21:58 32.03464 -81.36015 1979 ft 237 kts 351°
2026-05-03 21:58 32.04918 -81.36306 1955 ft 190 kts
2026-05-03 21:58 32.06119 -81.35987 1952 ft 174 kts 21°
2026-05-03 21:59 32.07320 -81.35531 2029 ft 184 kts 20°
2026-05-03 21:59 32.08498 -81.35078 1849 ft 171 kts 21°
2026-05-03 21:59 32.09582 -81.34598 1474 ft 166 kts 25°
2026-05-03 21:59 32.10661 -81.34080 1323 ft 169 kts 25°
2026-05-03 22:00 32.11750 -81.33540 1314 ft 167 kts 31°
2026-05-03 22:00 32.12632 -81.32704 1294 ft 161 kts 57°
2026-05-03 22:00 32.12942 -81.31486 1263 ft 154 kts 86°
2026-05-03 22:00 32.13021 -81.30215 1159 ft 157 kts 88°
2026-05-03 22:01 32.13022 -81.28919 1054 ft 159 kts 92°
2026-05-03 22:01 32.12992 -81.27617 927 ft 156 kts 93°
2026-05-03 22:01 32.12973 -81.26374 755 ft 149 kts 93°
2026-05-03 22:01 32.12939 -81.25185 566 ft 140 kts 96°
2026-05-03 22:02 32.12902 -81.24073 342 ft 131 kts 92°
2026-05-03 22:02 32.12893 -81.22990 202 ft 136 kts 93°
2026-05-03 22:02 32.12887 -81.21878 116 ft 132 kts 92°
2026-05-03 22:02 32.12878 -81.20828 25 ft 118 kts 91°
2026-05-03 22:03 32.12866 -81.20108 39 ft 40 kts 91°
2026-05-03 22:03 32.12864 -81.19971 42 ft 2 kts 93°
2026-05-03 22:03 32.12857 -81.19888 44 ft 12 kts 102°
2026-05-03 22:03 32.12809 -81.19821 45 ft 10 kts 162°
2026-05-03 22:04 32.12736 -81.19807 44 ft 10 kts 179°